This is the latest recevied weather packets stored in our database for station/object IR4UCA-3. If no packets are shown the sender has not sent any weather packets the latest 10 day(s).
| Time | Temp. | Humidity | Pressure | Rain* | Wind** | Luminosity | Snow |
|---|---|---|---|---|---|---|---|
| 1777028985 | 22.22° C | 34% | 1016.7 hPa | 0 mm | - | - | - |
| 1777028861 | 22.22° C | 36% | 1016.8 hPa | 0 mm | - | - | - |
| 1777028743 | 22.22° C | 35% | 1016.8 hPa | 0 mm | - | - | - |
| 1777028624 | 22.22° C | 35% | 1016.8 hPa | 0 mm | - | - | - |
| 1777028502 | 22.22° C | 34% | 1016.8 hPa | 0 mm | - | - | - |
| 1777028382 | 22.22° C | 40% | 1016.8 hPa | 0 mm | - | - | - |
| 1777028259 | 22.22° C | 40% | 1016.9 hPa | 0 mm | - | - | - |
| 1777028139 | 21.67° C | 43% | 1016.9 hPa | 0 mm | - | - | - |
| 1777028021 | 21.67° C | 42% | 1017.1 hPa | 0 mm | - | - | - |
| 1777027902 | 21.67° C | 44% | 1016.9 hPa | 0 mm | - | - | - |
| 1777027782 | 21.67° C | 45% | 1016.9 hPa | 0 mm | - | - | - |
| 1777027659 | 21.67° C | 45% | 1016.9 hPa | 0 mm | - | - | - |
| 1777027546 | 21.67° C | 45% | 1016.9 hPa | 0 mm | - | - | - |
| 1777027415 | 21.67° C | 46% | 1017.1 hPa | 0 mm | - | - | - |
| 1777027295 | 21.67° C | 46% | 1017.1 hPa | 0 mm | - | - | - |
| 1777027172 | 21.11° C | 46% | 1017.1 hPa | 0 mm | - | - | - |
| 1777027052 | 21.11° C | 47% | 1017.2 hPa | 0 mm | - | - | - |
| 1777026938 | 21.11° C | 47% | 1017.2 hPa | 0 mm | - | - | - |
| 1777026812 | 21.11° C | 46% | 1017.3 hPa | 0 mm | - | - | - |
| 1777026692 | 21.11° C | 46% | 1017.2 hPa | 0 mm | - | - | - |
| 1777026570 | 21.11° C | 47% | 1017.2 hPa | 0 mm | - | - | - |
| 1777026450 | 21.11° C | 47% | 1017.2 hPa | 0 mm | - | - | - |
| 1777026335 | 21.11° C | 47% | 1017.2 hPa | 0 mm | - | - | - |
| 1777026217 | 20.56° C | 47% | 1017.2 hPa | 0 mm | - | - | - |
| 1777026095 | 20.56° C | 47% | 1017.3 hPa | 0 mm | - | - | - |
* Rain latest hour (hover to see other rain measurements)
** Current wind speed in m/s (hover to see current wind gust speed)